STARLINK-5650, 55475

Orbit data source: Space-Track

STARLINK-5650, 55475 is a payload satellite owned by SpaceX/Seattle (US) in LEO that was launched on Thu, 02 Feb 2023 UTC via an FALCON 9 launch vehicle from the Air Force Eastern Test Range (AFETR). Payload-class satellites include a variety of spacecraft equipped with specific instruments for various scientific and technological missions. These include communications satellites like Starlink; space stations such as the ISS; scientific satellites like the Hubble; Earth observation satellites from companies like Planet Labs, Umbra, and HawkEye 360; GPS; miniature CubeSats for education and research; and military/defense satellites.

Loading next visibility...
Identifier
55475, 2023-015AC
Orbit
LEO
Country
Flag of USUS
Related business
Manufacturer
SpaceX/Seattle
Mission
Operational Commercial Communications
Bus & Motor
STARLINK, Unknown motor
Mass
305 kg wet, ~290 kg dry
Launch date (UTC)
2023-02-02 (3 years ago)
Launch vehicle
FALCON 9
Launch site
Air Force Eastern Test Range (AFETR)
Object type
Payload
Rocket body
Debris
Shape & HBR
Box + 1 Pan, 10.1 m
Radar Cross Section
13.562 m², Large (>1 m²)

Expand to show TLE details & history
Last TLE update: 1 day ago

TLE from 1 day ago
0 STARLINK-5650
1 55475U 23015AC  26126.64585750  .00001226  00000-0  54083-4 0  9999
2 55475  43.0056   1.5842 0001697 261.7791  98.2869 15.27584370179586
Epoch: 2026-05-06T15:30Z
TLE epoch observation values (Epoch: 2026-05-06T15:30:02.088Z)
Latitude
0.00001°
Longitude
-95.42786°
Altitude
482.98 km
Speed
7.626 km/s
True Right ascension
00h 06m 20s
True Declination
0° 00' 00"
Sunlit
Object was in daylight at epoch
Visualization orbit readout
Latitude
Unknown
Longitude
Unknown
Altitude
Unknown
Speed
Unknown
Apparent Right ascension
Unknown
Apparent Declination
Unknown
Sunlit
N/A
Visualization observer readout
Local Sidereal Time
02:26:19
Azimuth
Unknown
Elevation
Unknown
Doppler factor
Unknown
Orbital elements
Apogee altitude
486.145 km
Perigee altitude
483.816 km
Semi-major axis
6,863.117 km
Eccentricity
0.00017
Inclination
43.0056°
RAAN
1.5842°
Arg. of periapsis
261.7791°
True anomaly
98.30614°
Mean anomaly
98.2869°
Eccentric anomaly
98.29652°
Mean motion
3.81734 °/min
Orbital period
94.31 mins
BSTAR
0.000054083
Loading maneuver chart data...
Computing Atmospheric mass density...

Documentation

Showing up to 5 results
|